Location: Azul
(36.7830°S, 59.8500°W)
Time: 18:42:02
(UTC-03:00)

First-Move - Pass Details

Date: 29 October 2021
Orbit: 575 x 664 km, 97.6° (Epoch: 07 December)

Event Time Altitude Azimuth Distance (km) Brightness Sun altitude
Rises 03:38:43 0° 54° (NE) 2,950 ? -24.9°
Reaches altitude 10° 03:41:33 10° 73° (ENE) 2,065 ? -24.5°
Maximum altitude 03:44:28 17° 114° (ESE) 1,658 ? -24.0°
Drops below altitude 10° 03:47:26 10° 154° (SSE) 2,106 ? -23.6°
Sets 03:50:21 0° 173° (S) 3,035 ? -23.1°
